Weather History for KSPF - September, 2013

Change the Weather History Date:

Saturday, September 28, 2013

  Actual Average (KEFC) Record (KEFC)
Temperature  
Mean Temperature 50 °F -  
Max Temperature 62 °F 72 °F 93 °F (1957)
Min Temperature 37 °F 39 °F 22 °F (1951)
Degree Days  
Heating Degree Days 16    
Moisture  
Dew Point 32 °F    
Average Humidity 51    
Maximum Humidity 87    
Minimum Humidity 30    
Precipitation  
Precipitation 0.00 in - - ()
Sea Level Pressure  
Sea Level Pressure 29.93 in    
Wind  
Wind Speed 13 mph (WSW)    
Max Wind Speed 24 mph    
Max Gust Speed 34 mph    
Visibility 10 miles    
Events      
Averages and records for this station are not official NWS values.
T = Trace of Precipitation, MM = Missing Value Source: NWS Daily Summary

Daily Weather History Graph

Daily Weather History Graph

Search for Another Location

Airport or City:

Trip Planner

Search our weather history database for the weather conditions in past years. The results will help you decide how hot, cold, wet, or windy it might be!

Date:

Astronomy

Sep. 28, 2013 Rise Set
Actual Time 7:49 AM CDT 7:40 PM CDT
Civil Twilight 7:20 AM CDT 8:09 PM CDT
Nautical Twilight 6:46 AM CDT 8:43 PM CDT
Astronomical Twilight 6:12 AM CDT 9:17 PM CDT
Moon 1:27 AM CDT (9/28) 4:12 PM CDT (9/28)
Length of Visible Light 12h 49m
Length of Day
11h 51m
Waning Crescent, 36% of the Moon is Illuminated
Sep 28
Waning Crescent
Oct 4
New
Oct 11
First Quarter
Oct 18
Full
Oct 26
Last Quarter

Hourly Weather History & Observations

Time (CDT) Temp. Windchill Dew Point Humidity Pressure Visibility Wind Dir Wind Speed Gust Speed Precip Events Conditions
12:15 AM 39.2 °F 32.0 °F 33.8 °F 81% 29.92 in 10.0 mi WSW 11.5 mph - N/A   Mostly Cloudy
12:35 AM 37.4 °F 32.1 °F 33.8 °F 87% 29.91 in 10.0 mi West 6.9 mph - N/A   Scattered Clouds
12:55 AM 37.4 °F 32.1 °F 32.0 °F 81% 29.90 in 10.0 mi WNW 6.9 mph - N/A   Partly Cloudy
1:15 AM 39.2 °F 31.6 °F 32.0 °F 75% 29.90 in 10.0 mi West 12.7 mph - N/A   Scattered Clouds
1:35 AM 41.0 °F 35.8 °F 32.0 °F 70% 29.91 in 10.0 mi West 8.1 mph - N/A   Overcast
1:55 AM 39.2 °F 32.0 °F 32.0 °F 75% 29.92 in 10.0 mi West 11.5 mph - N/A   Overcast
2:15 AM 41.0 °F 35.2 °F 32.0 °F 70% 29.92 in 10.0 mi West 9.2 mph - N/A   Overcast
2:35 AM 41.0 °F 36.4 °F 32.0 °F 70% 29.92 in 10.0 mi West 6.9 mph - N/A   Overcast
2:55 AM 41.0 °F 37.1 °F 32.0 °F 70% 29.92 in 10.0 mi WNW 5.8 mph - N/A   Overcast
3:15 AM 41.0 °F 35.2 °F 32.0 °F 70% 29.93 in 10.0 mi West 9.2 mph - N/A   Overcast
3:55 AM 39.2 °F 32.5 °F 32.0 °F 75% 29.92 in 10.0 mi West 10.4 mph - N/A   Partly Cloudy
4:15 AM 39.2 °F 31.6 °F 32.0 °F 75% 29.92 in 10.0 mi West 12.7 mph 16.1 mph N/A   Clear
4:35 AM 39.2 °F 32.5 °F 32.0 °F 75% 29.92 in 10.0 mi West 10.4 mph - N/A   Clear
4:55 AM 39.2 °F 32.0 °F 32.0 °F 75% 29.92 in 10.0 mi West 11.5 mph - N/A   Clear
5:15 AM 39.2 °F 32.5 °F 32.0 °F 75% 29.92 in 10.0 mi West 10.4 mph - N/A   Clear
5:35 AM 39.2 °F 32.5 °F 32.0 °F 75% 29.92 in 10.0 mi West 10.4 mph - N/A   Clear
5:55 AM 39.2 °F 32.0 °F 32.0 °F 75% 29.93 in 10.0 mi WSW 11.5 mph - N/A   Clear
6:15 AM 39.2 °F 31.6 °F 32.0 °F 75% 29.93 in 10.0 mi WSW 12.7 mph - N/A   Clear
6:35 AM 41.0 °F 33.9 °F 30.2 °F 65% 29.94 in 10.0 mi West 12.7 mph - N/A   Clear
6:55 AM 39.2 °F 31.6 °F 32.0 °F 75% 29.94 in 10.0 mi West 12.7 mph - N/A   Clear
7:15 AM 41.0 °F 34.7 °F 30.2 °F 65% 29.94 in 10.0 mi West 10.4 mph - N/A   Clear
7:35 AM 41.0 °F 33.9 °F 32.0 °F 70% 29.94 in 10.0 mi WSW 12.7 mph - N/A   Clear
7:55 AM 41.0 °F 35.8 °F 32.0 °F 70% 29.93 in 10.0 mi West 8.1 mph - N/A   Clear
8:15 AM 44.6 °F 38.4 °F 30.2 °F 57% 29.94 in 10.0 mi WSW 12.7 mph 20.7 mph N/A   Clear
8:35 AM 46.4 °F 40.1 °F 30.2 °F 53% 29.94 in 10.0 mi WSW 15.0 mph 23.0 mph N/A   Clear
8:55 AM 46.4 °F 40.1 °F 30.2 °F 53% 29.94 in 10.0 mi WSW 15.0 mph 19.6 mph N/A   Mostly Cloudy
9:15 AM 46.4 °F 40.4 °F 32.0 °F 57% 29.94 in 10.0 mi West 13.8 mph 19.6 mph N/A   Scattered Clouds
9:35 AM 48.2 °F - 32.0 °F 54% 29.93 in 10.0 mi WSW 21.9 mph 27.6 mph N/A   Clear
9:55 AM 50.0 °F - 32.0 °F 50% 29.94 in 10.0 mi WSW 16.1 mph 25.3 mph N/A   Partly Cloudy
10:15 AM 51.8 °F - 32.0 °F 47% 29.94 in 10.0 mi WSW 20.7 mph 27.6 mph N/A   Clear
10:35 AM 53.6 °F - 32.0 °F 44% 29.94 in 10.0 mi WSW 18.4 mph 27.6 mph N/A   Clear
10:55 AM 53.6 °F - 30.2 °F 41% 29.94 in 10.0 mi WSW 19.6 mph 27.6 mph N/A   Clear
11:15 AM 55.4 °F - 32.0 °F 41% 29.95 in 10.0 mi West 19.6 mph 26.5 mph N/A   Clear
11:35 AM 55.4 °F - 32.0 °F 41% 29.95 in 10.0 mi West 21.9 mph 32.2 mph N/A   Clear
11:55 AM 55.4 °F - 30.2 °F 38% 29.95 in 10.0 mi West 20.7 mph 31.1 mph N/A   Clear
12:15 PM 57.2 °F - 32.0 °F 38% 29.95 in 10.0 mi West 16.1 mph 31.1 mph N/A   Clear
12:35 PM 57.2 °F - 32.0 °F 38% 29.94 in 10.0 mi West 16.1 mph 27.6 mph N/A   Clear
12:55 PM 57.2 °F - 32.0 °F 38% 29.94 in 10.0 mi West 21.9 mph 28.8 mph N/A   Clear
1:15 PM 59.0 °F - 32.0 °F 36% 29.94 in 10.0 mi West 17.3 mph 27.6 mph N/A   Clear
1:35 PM 59.0 °F - 32.0 °F 36% 29.93 in 10.0 mi West 19.6 mph 29.9 mph N/A   Clear
1:55 PM 59.0 °F - 32.0 °F 36% 29.93 in 10.0 mi West 18.4 mph 27.6 mph N/A   Clear
2:15 PM 60.8 °F - 32.0 °F 34% 29.93 in 10.0 mi West 17.3 mph 27.6 mph N/A   Clear
2:35 PM 62.6 °F - 32.0 °F 32% 29.92 in 10.0 mi West 15.0 mph 25.3 mph N/A   Clear
2:55 PM 62.6 °F - 32.0 °F 32% 29.92 in 10.0 mi West 16.1 mph 29.9 mph N/A   Clear
3:15 PM 62.6 °F - 32.0 °F 32% 29.92 in 10.0 mi West 16.1 mph 29.9 mph N/A   Clear
3:35 PM 62.6 °F - 32.0 °F 32% 29.92 in 10.0 mi West 20.7 mph 28.8 mph N/A   Clear
3:55 PM 62.6 °F - 30.2 °F 30% 29.92 in 10.0 mi West 17.3 mph 28.8 mph N/A   Clear
4:15 PM 62.6 °F - 32.0 °F 32% 29.92 in 10.0 mi West 17.3 mph 31.1 mph N/A   Clear
4:35 PM 62.6 °F - 32.0 °F 32% 29.93 in 10.0 mi West 13.8 mph 23.0 mph N/A   Clear
4:55 PM 62.6 °F - 32.0 °F 32% 29.93 in 10.0 mi West 10.4 mph 23.0 mph N/A   Clear
5:15 PM 60.8 °F - 32.0 °F 34% 29.94 in 10.0 mi West 13.8 mph 20.7 mph N/A   Clear
5:35 PM 60.8 °F - 32.0 °F 34% 29.94 in 10.0 mi West 9.2 mph 18.4 mph N/A   Clear
5:55 PM 60.8 °F - 32.0 °F 34% 29.94 in 10.0 mi West 15.0 mph 18.4 mph N/A   Clear
6:15 PM 59.0 °F - 32.0 °F 36% 29.94 in 10.0 mi West 11.5 mph 18.4 mph N/A   Clear
6:35 PM 59.0 °F - 32.0 °F 36% 29.94 in 10.0 mi WSW 6.9 mph - N/A   Clear
6:55 PM 55.4 °F - 35.6 °F 47% 29.94 in 10.0 mi WSW 5.8 mph - N/A   Clear
7:15 PM 53.6 °F - 35.6 °F 51% 29.94 in 10.0 mi West 3.5 mph - N/A   Clear
7:35 PM 55.4 °F - 33.8 °F 44% 29.94 in 10.0 mi West 3.5 mph - N/A   Clear
7:55 PM 51.8 °F - 35.6 °F 54% 29.95 in 10.0 mi West 4.6 mph - N/A   Clear
8:15 PM 53.6 °F - 33.8 °F 47% 29.95 in 10.0 mi West 5.8 mph - N/A   Clear
8:35 PM 55.4 °F - 32.0 °F 41% 29.95 in 10.0 mi WSW 15.0 mph 20.7 mph N/A   Clear
8:55 PM 55.4 °F - 32.0 °F 41% 29.94 in 10.0 mi WSW 17.3 mph 21.9 mph N/A   Clear
9:15 PM 57.2 °F - 32.0 °F 38% 29.94 in 10.0 mi SW 18.4 mph 31.1 mph N/A   Clear
9:35 PM 57.2 °F - 33.8 °F 41% 29.94 in 10.0 mi SW 23.0 mph 32.2 mph N/A   Clear
9:55 PM 57.2 °F - 33.8 °F 41% 29.93 in 10.0 mi SW 24.2 mph 33.4 mph N/A   Clear
10:15 PM 57.2 °F - 32.0 °F 38% 29.93 in 10.0 mi SW 17.3 mph 34.5 mph N/A   Clear
10:35 PM 57.2 °F - 32.0 °F 38% 29.94 in 10.0 mi SW 24.2 mph 34.5 mph N/A   Clear
10:55 PM 57.2 °F - 32.0 °F 38% 29.93 in 10.0 mi SW 20.7 mph 32.2 mph N/A   Clear
11:15 PM 55.4 °F - 32.0 °F 41% 29.93 in 10.0 mi SSW 15.0 mph 20.7 mph N/A   Clear
11:35 PM 55.4 °F - 33.8 °F 44% 29.93 in 10.0 mi SW 13.8 mph 20.7 mph N/A   Clear
11:55 PM 55.4 °F - 33.8 °F 44% 29.92 in 10.0 mi SSW 18.4 mph - N/A   Clear